Regional Weather Roundup
Issued by NWS

Home | Current Version | Previous Version | Text Only | Print | Product List | Glossary Off
Versions: 1 2 3 4 5 6 7 8 9 10 11 12 13 14 15 16 17 18 19 20 21 22 23 24 25 26 27 28 29 30 31 32 33 34 35 36 37 38 39 40 41 42 43 44 45 46 47 48 49 50

000
ASUS43 KLSX 271410
RWRMO

WEATHER SUMMARY FOR MISSOURI
NATIONAL WEATHER SERVICE SPRINGFIELD MO
900 AM CDT WED JUL 27 2016

NOTE: "FAIR" INDICATES FEW OR NO CLOUDS BELOW 12,000 FEET WITH NO
       SIGNIFICANT WEATHER AND/OR OBSTRUCTIONS TO VISIBILITY.
       CURRENT SKY AND/OR WEATHER CONDITIONS ARE NOT AVAILABLE FOR
       CHILLICOTHE AND FARMINGTON.

MOZ001>031-035>038-043-044-053-054-271500-
...NORTHERN AND WESTERN MISSOURI...

CITY           SKY/WX    TMP DP  RH WIND       PRES   REMARKS
KANSAS CTY INT CLOUDY    77  69  76 E6        29.99R
KANSAS C DTWN  CLOUDY    78  70  76 NE3       29.98S
LEE`S SUMMIT   CLOUDY    76  70  82 SE6       29.98F
ST JOSEPH      SUNNY     75  68  78 SE6       29.98R
CHILLICOTHE      N/A     77  69  76 E5        30.00S
KIRKSVILLE     MOSUNNY   75  68  78 NE3       30.01S

$$
MOZ066>068-077>081-088>096-101>105-271500-
...SOUTHWEST MISSOURI...

CITY           SKY/WX    TMP DP  RH WIND       PRES   REMARKS
SPRINGFIELD    CLOUDY    74  71  91 SE9       30.02R
JOPLIN         CLOUDY    76  74  93 CALM      30.01R
BRANSON        PTSUNNY   75  75 100 NE3       30.04S

$$
MOZ032>034-039>042-045>050-055>058-069>072-271500-
...CENTRAL MISSOURI...

CITY           SKY/WX    TMP DP  RH WIND       PRES   REMARKS
COLUMBIA       MOSUNNY   78  75  90 SE5       30.00S
JEFFERSON CITY SUNNY     78  74  87 E5        29.98F
ROLLA          CLOUDY    75  73  93 SE6       30.01S
SEDALIA        SUNNY     81  73  76 VRB3      30.01R
WHITEMAN AFB   MOSUNNY   78  78  99 S7        29.98S
OSAGE BEACH    CLOUDY    78  73  84 S7        30.01S

$$
MOZ051-052-059>065-271500-
...EAST CENTRAL MISSOURI...

CITY           SKY/WX    TMP DP  RH WIND       PRES   REMARKS
ST LOUIS INTL  PTSUNNY   81  70  69 CALM      30.01S
SPIRIT OF STL  PTSUNNY   79  74  84 W3        29.98F
ST CHARLES     CLOUDY    79  74  84 S6        29.99S

$$
MOZ072>076-082>087-097>100-106>115-271500-
...SOUTH CENTRAL AND SOUTHEAST MISSOURI...

CITY           SKY/WX    TMP DP  RH WIND       PRES   REMARKS
CAPE GIRARDEAU MOSUNNY   80  75  84 CALM      29.98F
FARMINGTON     LGT RAIN  70  69  97 SW3       30.05S
POPLAR BLUFF   PTSUNNY   79  75  87 N3        29.98S
WEST PLAINS    SUNNY     78  71  79 CALM      30.04S

$$




USA.gov is the U.S. government's official web portal to all federal, state and local government web resources and services.